Showing default

SKYSAT C8, 42990

Orbit data source: Space-Track

SKYSAT C8, 42990 is a payload satellite owned by Terra Bella (US) in SSO that was launched on Tue, 31 Oct 2017 UTC via a MINOTAUR-C 3210 launch vehicle from the Air Force Western Test Range (AFWTR). Payload-class satellites include a variety of spacecraft equipped with specific instruments for various scientific and technological missions. These include communications satellites like Starlink; space stations such as the ISS; scientific satellites like the Hubble; Earth observation satellites from companies like Planet Labs, Umbra, and HawkEye 360; GPS; miniature CubeSats for education and research; and military/defense satellites.

Loading next visibility...
Identifier
42990, 2017-068D
Orbit
SSO
Country
Flag of USUS
Related business
Manufacturer
Maxar SSL
Mission
Operational Commercial Imaging
Bus & Motor
SKYSAT-GEN2, Unknown motor
Mass
110 kg wet, 110 kg dry
Launch date (UTC)
2017-10-31 (8 years ago)
Launch vehicle
MINOTAUR-C 3210
Launch site
Air Force Western Test Range (AFWTR)
Object type
Payload
Rocket body
Debris
Shape & HBR
Box, 1.0 m
Radar Cross Section
0.888 m², Medium (>0.1 m² and < 1m²)

Expand to show TLE details & history
Last TLE update: 10 hours ago

TLE from 10 hours ago
0 SKYSAT C8
1 42990U 17068D   25303.27470511  .00015614  00000-0  50390-3 0  9993
2 42990  97.4248  73.1275 0005466  88.9279 271.2589 15.32211269447055
Epoch: 2025-10-30T06:35Z
TLE epoch observation values (Epoch: 2025-10-30T06:35:34.521Z)
Latitude
-0.00002°
Longitude
-64.60217°
Altitude
472.242 km
Speed
7.63 km/s
True Right ascension
04h 52m 30s
True Declination
0° 00' 00"
Sunlit
Object was in full shadow at epoch
Visualization orbit readout
Latitude
Unknown
Longitude
Unknown
Altitude
Unknown
Speed
Unknown
Apparent Right ascension
Unknown
Apparent Declination
Unknown
Sunlit
N/A
Visualization observer readout
Local Sidereal Time
12:25:01
Azimuth
Unknown
Elevation
Unknown
Doppler factor
Unknown
Orbital elements
Apogee altitude
469.908 km
Perigee altitude
462.426 km
Semi-major axis
6,844.304 km
Eccentricity
0.00055
Inclination
97.4248°
RAAN
73.1275°
Arg. of periapsis
88.9279°
True anomaly
271.19628°
Mean anomaly
271.2589°
Eccentric anomaly
271.22759°
Mean motion
3.83309 °/min
Orbital period
93.92 mins
BSTAR
0.0005039
Loading maneuver chart data...
Computing Atmospheric mass density...
Loading historical data...
Loading historical data...
Loading historical data...
Loading historical data...
Loading historical data...
Loading historical data...
Loading historical data...

Documentation

Showing up to 5 results
|